Location: Roland
(31.1349°N, 85.4372°W)
Time: 22:49:04
(UTC+00:00)

Tiros 1 - Pass Details

Date: 23 April 2021
Orbit: 630 x 664 km, 48.4° (Epoch: 05 May)

Event Time Altitude Azimuth Distance (km) Brightness Sun altitude
Rises 19:19:37 0° 317° (NW) 2,917 10.6 60.6°
Reaches altitude 10° 19:22:07 10° 326° (NNW) 2,006 9.8 60.2°
Maximum altitude 19:26:21 36° 33° (NNE) 1,004 8.3 59.4°
Drops below altitude 10° 19:30:36 10° 101° (E) 2,001 9.5 58.6°
Sets 19:33:04 0° 110° (ESE) 2,909 10.3 58.2°
